Погода в Синише

Португалия     37°57′26″N   8°52′06″W
темп.,
°C
ветер,
м/с
пор.,
м/с
влажн.,
%
обл.,
%
осадки,
мм/ч
давл.,
гПа
погр.,
м
1 июля, пт
пт101:00+15с614771 0.0 1017525
04:00+15с512780 0.0 1017476
07:00+14с410830 0.0 1016367
10:00+21с56550 0.0 1017572
13:00+25сз55420 0.0 1016846
16:00+27сз65400 0.0 1014690
19:00+24сз69510 0.0 1014339
22:00+19ссз612665 0.0 1015392
2 июля, сб
сб201:00+16с388590 0.0 1016253
04:00+14ссв239045 0.0 101662
07:00+15с248479 0.0 1016109
10:00+25с12425 0.0 1016511
13:00+26зсз54424 0.0 1017865
16:00+26зсз55461 0.0 1016602
19:00+23зсз455531 0.2 1015305
22:00+17зсз229321 0.4 101739
3 июля, вс
вс301:00+17юз11930 0.4 101722
04:00+16юз239719 0.0 101682
07:00+16юз249839 0.0 1017148
10:00+21зюз33695 0.0 1018516
13:00+24з54588 0.0 1018738
16:00+23з55612 0.0 1018607
19:00+20з45730 0.0 1017514
22:00+16з259619 0.0 1018152
4 июля, пн
пн401:00+16зюз229621 0.0 101842
04:00+15зюз249428 0.0 1017127
07:00+16юз238852 0.0 1018248
10:00+21юз236015 0.0 1018734
13:00+24зюз54520 0.0 1018833
16:00+23з55540 0.0 1017625
19:00+21з46660 0.0 1016549
22:00+17зюз23950 0.0 101870
5 июля, вт
вт501:00+16зюз229821 0.0 101837
04:00+16юз229832 0.0 101731
07:00+17юз229135 0.0 101851
10:00+21з226512 0.0 1019636
13:00+24з43550 0.0 1019739
16:00+23з54570 0.0 1018562
19:00+21зсз46700 0.0 1018475
22:00+17зсз26951 0.0 1019163